RH
10 12 14 15 15 16 15 15 14 14 15 16 18 19 19 20 17 16 20 20 19 21 21 19 20 18 16 16 15 15 15 16 17 19 20 20 21 22 22 22 22 22 23 23 23 24 26 28 30 31 32 33 33 34 35 35 35 34 33 33 33 33 34 35 38 40 39 39 38 36 34 32 30 30 31 32 33 33 32 32 33 33 34 36 38 39
12 14 15 15 15 15 15 15 14 15 16 17 19 19 19 20 19 18 22 22 20 22 21 20 20 18 16 16 15 16 16 18 18 20 21 21 23 24 23 23 23 23 24 25 25 26 28 30 31 33 34 35 35 35 36 36 36 35 33 33 33 32 34 35 38 41 41 41 39 36 34 33 34 34 35 35 34 33 31 31 32 32 34 36 38 40
15 16 16 15 15 16 16 15 15 16 18 19 19 20 20 20 20 21 24 23 22 23 22 21 20 18 16 16 16 16 17 18 19 20 22 23 24 25 25 24 24 25 26 26 28 29 30 32 33 35 37 37 37 37 37 37 37 36 35 34 34 34 35 36 38 40 41 42 40 37 35 35 37 39 39 37 34 32 31 30 30 31 32 34 38 41
16 16 15 14 15 16 16 16 16 18 19 20 20 20 21 21 22 23 25 25 24 24 23 22 22 20 18 17 16 17 17 18 21 22 24 25 26 27 26 25 25 27 28 29 30 31 32 34 36 37 38 38 39 39 38 38 38 37 36 35 35 36 36 37 37 38 40 42 40 38 39 41 42 42 40 37 34 32 31 30 30 30 31 32 35 40
16 16 14 15 15 15 16 17 18 19 20 20 21 22 22 22 23 24 24 25 24 24 25 24 23 20 19 19 18 19 21 21 23 25 26 28 28 28 27 26 28 29 31 32 32 33 34 36 38 39 39 40 41 41 41 41 40 38 38 38 38 38 38 38 38 38 39 39 40 42 45 46 44 41 39 37 36 34 32 31 30 29 30 31 34 37
17 16 15 16 17 16 17 19 19 21 20 20 22 24 23 22 24 25 25 26 24 24 26 26 26 23 19 20 20 21 24 24 25 27 27 28 28 28 28 28 31 32 34 35 35 36 38 40 41 41 41 42 43 44 44 42 41 41 41 41 41 41 41 39 38 37 38 39 43 45 45 44 41 40 39 39 38 36 34 32 30 30 29 30 31 34
17 16 17 19 18 17 19 19 20 21 21 22 23 25 24 23 25 26 26 28 27 25 25 26 29 27 21 20 22 23 25 25 27 29 29 30 30 29 31 32 34 35 37 38 40 42 43 43 43 43 44 46 47 46 45 44 43 44 44 45 44 42 40 38 38 39 41 42 42 41 39 39 39 39 38 38 38 37 36 34 32 30 28 27 28 29
19 18 18 19 18 19 20 20 20 20 22 24 25 25 25 24 25 26 26 28 27 25 25 26 28 30 26 23 24 25 27 28 29 32 32 32 32 33 35 37 38 40 41 42 44 44 45 44 44 44 46 47 47 46 45 45 46 47 48 48 44 41 40 41 41 42 40 39 37 36 36 35 35 34 33 34 34 33 32 32 31 29 28 26 25 25
20 19 19 19 19 20 20 19 20 20 22 25 25 25 24 24 26 26 27 28 27 28 28 27 29 34 31 26 26 28 30 32 33 34 35 35 36 37 39 40 41 43 44 44 44 44 44 44 44 44 45 45 46 46 46 47 48 49 47 45 43 44 44 43 42 40 37 36 34 32 31 30 30 29 28 28 28 27 28 28 28 30 30 28 27 26
21 20 20 21 20 21 19 19 22 22 24 25 26 26 25 27 27 27 29 28 28 33 33 30 31 34 32 28 30 31 32 36 37 37 39 40 40 41 41 43 43 44 44 44 44 44 44 44 43 43 44 46 47 47 49 49 48 47 46 46 47 46 44 41 40 37 35 33 32 29 27 26 25 24 23 24 25 26 29 29 29 31 32 31 29 28
23 21 21 22 22 20 19 21 24 24 25 25 25 26 27 28 28 28 29 28 32 38 34 31 31 32 34 33 32 35 37 41 42 42 43 42 41 43 44 45 45 44 44 44 44 44 44 44 44 44 46 48 50 49 49 49 48 48 47 47 45 42 39 36 34 33 32 31 30 28 26 24 22 21 21 21 22 24 27 29 29 30 32 32 31 30
25 22 21 23 23 21 20 22 23 24 24 24 25 27 27 28 27 29 29 31 40 43 34 31 32 34 38 38 35 38 42 45 46 45 45 44 43 45 46 45 44 44 44 45 46 46 46 46 46 48 50 52 53 52 50 50 49 47 45 43 40 37 34 32 30 28 28 28 28 27 26 25 24 23 22 22 21 22 23 24 24 25 26 28 29 28
25 25 24 23 22 22 22 23 24 25 25 25 26 27 31 32 30 32 34 35 41 42 33 32 36 36 38 38 38 40 42 44 45 44 44 44 44 45 45 44 44 45 47 48 49 48 48 49 50 51 53 56 56 54 51 49 47 45 42 40 36 34 32 30 29 26 24 25 26 28 28 28 27 26 26 25 24 24 23 23 23 23 23 24 24 25
24 27 26 25 23 22 23 22 24 25 25 27 26 27 33 37 36 37 36 35 39 38 33 33 36 38 37 38 40 41 41 41 41 42 43 43 43 43 44 45 46 48 49 50 49 49 50 51 53 56 59 61 57 52 48 47 47 44 40 36 34 33 32 31 29 26 24 25 26 28 29 30 30 30 29 28 27 26 26 25 25 25 25 25 24 24
23 25 26 26 25 23 23 23 24 25 26 26 26 28 31 35 40 43 40 41 43 39 35 36 38 39 39 41 42 40 39 39 40 42 43 41 42 44 46 48 50 52 52 52 51 52 54 56 60 64 65 60 53 48 47 47 44 39 35 33 33 32 31 30 28 27 27 27 28 28 28 29 29 29 30 29 28 28 28 27 27 27 27 26 26 26
20 23 27 26 23 23 24 24 25 27 28 27 26 29 33 33 37 41 40 39 41 42 42 40 39 38 37 40 41 40 40 40 42 43 42 43 44 46 49 51 53 55 54 54 55 57 61 65 68 67 62 55 48 45 44 42 38 34 32 30 29 28 29 29 29 30 30 31 31 31 29 28 28 29 30 29 29 29 29 30 30 30 29 28 28 29
21 23 26 26 23 23 25 26 27 28 29 28 27 31 34 34 34 39 41 38 39 47 45 38 41 41 39 41 42 42 45 45 45 45 44 45 46 48 51 53 54 56 57 60 64 67 69 70 68 62 55 49 43 40 39 37 34 31 29 28 27 28 29 30 31 32 33 34 35 35 34 33 32 32 32 31 31 30 31 32 32 34 33 32 32 33
24 23 24 26 26 26 25 26 28 29 30 30 31 34 35 36 36 39 44 43 46 51 44 37 42 45 45 48 46 45 50 50 48 48 47 48 51 53 55 56 59 62 66 69 71 70 69 66 61 55 48 42 38 37 37 34 31 28 28 28 29 29 30 31 33 34 35 36 37 37 37 37 37 36 35 33 32 32 32 33 34 36 37 36 37 39
25 26 25 26 28 28 27 29 30 30 31 32 33 34 35 39 41 41 44 49 53 54 47 40 43 45 47 51 51 50 52 52 52 52 53 54 56 58 59 62 67 70 70 69 67 65 64 60 54 47 41 37 37 38 36 32 29 28 29 29 29 31 32 34 35 35 37 37 37 37 36 36 36 34 34 33 34 35 36 36 37 39 41 42 43 45
26 29 28 27 28 28 27 30 31 31 32 32 32 34 34 38 41 41 44 48 53 56 53 49 50 50 49 51 55 56 55 54 55 55 56 58 61 63 67 70 70 69 66 63 62 61 58 52 45 40 38 38 39 37 34 31 30 29 30 31 32 33 35 36 36 36 37 35 34 33 32 32 31 31 31 33 34 35 36 38 39 40 42 45 49 53
27 29 29 28 29 29 28 30 30 30 32 34 35 37 38 39 40 43 45 45 48 54 56 57 58 54 50 52 54 55 54 55 57 59 62 66 69 72 73 72 69 65 63 61 58 55 50 44 40 40 41 42 40 37 35 34 32 32 33 35 35 36 37 36 35 34 34 32 31 30 30 30 29 29 30 30 31 31 32 35 36 37 39 44 50 59
28 29 29 28 28 28 30 32 32 33 34 36 37 38 41 43 43 48 51 48 48 53 56 59 60 52 48 51 53 56 60 63 65 68 70 72 74 75 72 68 64 60 57 55 53 50 46 43 43 44 46 44 42 40 37 35 34 35 36 36 35 35 35 34 33 32 32 31 29 29 29 30 29 29 29 29 29 29 29 30 32 34 37 41 48 60
29 29 30 30 29 30 32 32 32 36 37 37 38 38 39 42 43 49 56 54 53 55 53 57 61 55 51 56 61 66 70 72 72 73 75 75 73 69 65 60 56 54 52 52 50 48 48 50 50 49 47 45 44 42 38 36 36 37 38 36 33 33 33 33 32 32 32 32 31 30 30 30 30 29 29 30 29 28 27 27 29 32 36 43 51 61
30 32 34 33 31 31 33 33 33 36 38 38 39 37 39 43 45 48 51 51 53 55 54 62 69 63 60 65 68 70 73 74 76 76 75 72 67 63 60 56 52 52 53 52 50 50 52 54 52 50 48 48 47 44 40 37 37 38 38 36 34 33 33 32 32 33 33 34 33 32 31 30 30 29 29 29 27 26 26 27 29 33 41 54 61 66
33 34 36 38 38 36 35 37 38 39 38 38 39 40 42 45 49 49 49 53 60 60 62 73 76 68 66 68 69 71 74 74 74 72 68 64 61 57 55 53 52 52 52 52 53 55 57 57 56 53 53 53 51 47 42 40 40 39 38 38 37 35 34 34 34 34 33 33 31 30 29 29 29 29 28 28 28 28 29 30 33 38 48 62 68 70
36 35 36 41 46 45 42 43 44 43 40 37 38 41 44 47 52 54 57 66 72 70 70 77 77 71 69 72 74 76 75 71 68 64 59 57 54 52 51 51 51 51 52 54 58 61 62 62 62 60 58 58 55 51 46 44 43 40 39 39 39 37 37 37 37 36 34 32 31 30 30 29 29 30 29 29 30 31 33 34 38 43 49 61 68 71
37 35 35 38 41 42 41 40 40 41 40 39 42 46 50 55 58 61 66 72 75 76 77 76 78 78 75 76 80 78 72 68 63 57 54 52 50 50 50 50 50 53 57 61 63 64 64 65 66 66 64 61 58 54 48 46 46 43 42 42 41 40 41 39 37 37 35 34 34 33 33 33 33 32 32 32 32 33 34 35 39 42 45 54 64 70
36 36 36 37 37 38 38 38 39 42 43 44 47 50 55 60 63 66 71 74 75 82 83 76 79 85 80 77 78 73 66 62 58 54 53 51 50 50 50 50 54 60 64 66 66 66 68 69 71 70 66 62 60 55 49 48 49 47 45 44 44 44 43 40 38 38 38 37 36 35 36 35 35 35 33 32 32 31 33 34 38 40 41 50 64 71
35 37 39 39 38 38 40 40 42 45 46 46 48 52 57 66 70 73 76 76 78 87 88 81 80 83 78 73 70 65 61 57 53 52 52 52 51 50 51 57 63 67 69 70 69 71 72 73 73 70 66 63 60 54 51 52 51 47 45 45 46 46 43 40 39 39 38 37 37 37 37 37 37 36 34 32 30 30 32 35 38 39 40 51 67 73
37 41 42 43 42 40 41 44 45 47 48 49 53 57 63 69 73 77 79 80 81 86 85 78 73 70 68 66 62 57 54 51 51 52 52 52 51 51 56 64 70 73 73 72 71 71 71 70 68 66 63 62 59 55 54 52 47 46 48 48 48 46 42 39 39 39 38 39 39 38 39 38 37 35 32 31 31 32 35 37 38 39 40 50 66 73
39 42 41 42 44 43 43 46 48 50 51 53 56 62 67 71 75 78 80 81 80 79 72 66 64 62 58 57 54 51 50 51 53 54 51 51 55 61 65 70 73 72 69 67 66 64 61 60 58 57 56 55 54 54 53 49 47 49 51 51 48 44 41 41 41 40 40 40 40 40 40 39 37 34 33 32 31 30 31 34 38 40 41 50 64 74
39 43 41 42 49 48 45 48 50 51 54 58 63 68 72 75 77 78 78 76 72 67 62 60 63 61 55 50 49 51 55 56 55 53 53 54 61 66 69 68 67 64 61 60 59 57 56 55 52 50 48 48 50 51 50 49 52 54 53 49 44 41 42 43 43 42 42 42 42 42 41 40 38 36 34 32 29 28 29 32 36 40 45 53 64 75
43 45 45 48 54 51 47 50 52 53 61 70 73 73 73 73 72 71 68 64 60 58 59 60 61 59 55 52 54 58 59 55 54 57 60 60 61 63 64 63 61 60 59 59 59 60 60 55 48 44 44 47 49 49 50 53 55 54 50 43 39 40 43 44 43 43 41 40 41 40 40 38 35 33 32 31 32 33 32 32 34 40 49 56 64 76
46 48 49 51 55 54 51 51 53 59 71 77 74 70 68 66 64 63 61 58 55 54 56 57 57 56 55 59 63 62 56 52 51 54 59 61 61 62 62 62 61 61 60 60 62 60 54 47 43 44 46 49 50 50 54 56 54 49 44 40 41 44 46 45 44 41 39 37 38 39 40 39 36 35 34 34 35 35 34 33 34 40 50 58 64 76
47 49 51 52 56 58 55 56 61 67 72 72 67 63 60 57 56 56 55 54 54 53 52 53 55 57 59 62 62 57 52 47 46 49 56 60 61 62 63 61 61 61 61 62 59 50 43 43 44 46 48 50 50 52 55 54 48 43 41 43 47 48 47 45 43 42 42 42 41 41 41 42 41 39 38 36 35 35 34 35 36 41 51 59 64 77
49 52 55 54 56 58 59 64 69 69 65 63 60 57 55 54 54 55 54 53 54 54 52 55 60 62 62 60 55 51 46 41 40 48 55 57 57 60 61 60 61 62 61 58 51 44 45 48 49 48 49 49 50 51 51 47 44 44 46 49 51 49 47 46 45 45 47 47 45 43 44 44 43 41 39 37 35 34 34 35 37 42 54 60 64 79
48 53 57 57 58 60 64 68 67 62 61 62 60 57 57 56 56 60 60 56 54 55 57 62 65 62 56 52 48 45 40 34 34 41 46 49 53 58 59 60 62 60 54 48 45 46 49 50 48 49 50 50 49 48 46 45 46 49 50 52 52 51 50 49 49 50 51 50 49 48 46 46 44 41 39 36 35 34 34 35 38 45 56 61 65 82
49 52 56 60 62 63 67 71 66 59 61 64 61 57 57 55 57 61 60 55 56 61 63 64 60 52 48 47 43 39 38 36 33 36 41 47 53 58 58 57 55 50 46 45 43 42 45 47 50 52 52 50 48 47 46 48 50 52 53 54 53 52 52 52 53 53 52 52 52 50 47 46 43 41 39 36 35 35 35 36 40 48 58 61 67 85
51 53 57 63 67 67 69 71 65 58 60 63 59 56 56 55 55 55 55 58 66 70 64 56 48 44 43 43 40 41 47 48 42 41 46 51 55 57 55 50 46 44 45 44 39 36 40 46 51 54 52 49 48 48 48 50 53 54 55 55 54 53 54 54 54 54 53 53 52 49 47 45 43 41 38 37 37 36 36 38 43 51 59 61 69 88
55 58 60 66 71 68 66 66 59 55 59 60 56 55 55 52 51 53 58 64 65 63 59 50 42 40 42 43 44 48 55 59 55 51 51 51 50 49 48 47 46 44 42 37 33 33 38 44 49 52 50 48 48 49 48 51 55 57 56 56 55 54 56 56 55 54 54 52 50 49 46 44 43 41 39 38 38 38 39 42 45 53 60 61 71 91
60 62 62 68 70 64 61 61 56 56 62 59 54 54 51 46 51 61 71 72 62 52 50 47 44 43 45 50 54 54 54 58 59 55 51 46 43 44 47 47 44 41 37 33 30 30 33 38 45 50 50 49 50 49 49 52 57 58 57 56 55 56 57 57 55 54 53 51 49 47 45 43 42 41 40 40 39 39 42 46 51 57 60 61 73 94
65 67 66 66 62 55 53 56 56 60 62 55 51 53 52 52 63 71 74 72 61 47 42 44 46 46 47 51 55 53 51 52 51 48 45 44 44 47 46 41 38 36 33 29 27 29 32 36 42 48 51 53 52 51 51 54 57 58 58 56 56 57 57 56 54 53 51 50 47 45 43 42 42 42 41 41 42 43 47 51 55 60 61 61 75 95
65 69 68 59 52 51 53 56 62 67 61 52 52 56 55 59 72 75 66 56 48 41 40 44 46 45 44 45 46 47 46 45 43 41 43 45 47 45 39 34 35 35 30 27 27 29 33 37 42 48 55 56 54 52 52 55 58 59 58 56 56 57 56 54 53 52 49 47 45 43 43 42 42 42 43 44 47 49 52 55 57 61 61 61 76 96
64 66 63 53 49 56 59 57 61 64 60 56 60 61 59 65 73 68 54 42 38 40 43 44 44 44 44 42 40 40 39 38 39 42 44 46 45 38 32 34 36 31 27 28 28 30 35 40 43 50 56 56 54 52 53 56 58 58 57 56 56 55 54 52 51 49 47 45 44 42 42 41 41 42 44 47 51 53 57 58 59 61 60 62 77 96
61 58 54 49 49 54 55 53 54 58 59 61 62 60 60 65 62 51 42 40 41 43 44 43 44 45 43 40 37 36 35 37 41 43 42 42 39 34 33 36 35 29 28 28 28 30 36 40 43 49 54 54 53 53 53 56 59 57 56 55 54 54 53 50 48 47 45 44 43 41 40 40 41 43 46 51 55 57 59 60 59 61 61 62 77 95
58 52 47 46 47 46 47 50 53 57 59 59 58 57 57 53 45 40 40 43 44 43 43 44 44 42 39 37 35 35 38 41 42 40 38 38 36 33 35 38 36 32 30 29 28 31 35 38 41 47 50 51 52 53 53 55 57 57 55 53 52 52 51 49 47 46 44 43 42 40 40 41 43 46 50 54 58 60 61 60 60 61 61 64 78 95
53 50 46 46 48 48 48 50 53 55 57 56 56 54 50 43 39 40 43 43 42 42 43 44 43 40 37 36 36 39 42 41 36 36 38 37 34 33 38 41 39 35 32 30 30 32 35 38 40 43 46 48 49 51 52 54 56 56 55 53 51 51 50 49 48 45 43 42 41 40 43 45 47 49 51 55 59 61 61 60 60 61 62 66 79 93
52 51 48 48 49 50 49 50 51 53 55 56 53 49 43 40 40 41 42 43 43 43 42 41 40 39 37 37 38 40 39 35 34 37 39 35 32 34 38 41 40 36 31 29 30 33 37 39 41 42 45 47 48 50 53 53 54 54 53 52 52 51 50 49 48 45 43 42 41 43 47 49 51 52 54 56 59 61 61 60 60 62 65 70 80 92
54 52 50 49 50 50 49 48 48 49 50 51 49 45 41 41 40 41 42 42 41 42 42 40 40 38 37 36 37 36 34 33 36 41 40 34 32 33 37 41 41 35 29 28 31 35 39 40 40 42 45 46 49 51 52 52 52 52 52 52 52 52 50 49 47 45 43 42 43 46 49 51 53 55 55 57 59 60 61 62 62 64 69 74 81 90
57 55 52 52 53 52 48 46 46 47 47 47 45 42 40 41 41 41 41 40 39 41 41 40 38 37 35 34 35 35 33 33 39 44 41 35 32 34 39 41 38 31 28 30 33 36 39 40 40 42 44 46 49 51 51 51 50 50 51 53 53 52 50 49 46 44 42 43 46 50 51 53 56 57 56 57 59 60 62 64 63 66 74 78 81 88
59 56 53 52 52 49 45 45 47 49 48 45 42 40 41 41 41 41 41 40 39 40 41 39 36 34 33 34 35 34 32 33 41 45 40 34 32 35 40 40 34 29 29 31 33 35 37 38 39 42 44 46 49 50 50 50 50 50 51 51 52 51 49 48 46 44 43 45 49 52 54 55 57 58 56 57 59 60 65 69 69 70 77 82 82 86